Regional Weather Roundup
Issued by NWS

Home | Current Version | Previous Version | Text Only | Print | Product List | Glossary Off
Versions: 1 2 3 4 5 6 7 8 9 10 11 12 13 14 15 16 17 18 19 20 21 22 23 24 25 26 27 28 29 30 31 32 33 34 35 36 37 38 39 40 41 42 43 44 45 46 47 48 49 50

000
ASUS45 KCYS 262210
RWRWY

WYOMING REGIONAL WEATHER ROUNDUP
NATIONAL WEATHER SERVICE CHEYENNE WY
400 PM MDT WED APR 26 2017

NOTE:  "FAIR" INDICATES FEW OR NO CLOUDS BELOW 12,000 FEET
WITH NO SIGNIFICANT WEATHER AND/OR OBSTRUCTIONS TO VISIBILITY.

WYZ001-262300-
YELLOWSTONE NATIONAL PARK

CITY           SKY/WX    TMP DP  RH WIND       PRES   REMARKS
LK YELLOWSTONE   N/A     35  29  78 VRB3      29.73F
W YELLOWSTONE  NOT AVBL

$$
WYZ002>013-054>058-071-098>099-262300-
NORTHERN WYOMING

CITY           SKY/WX    TMP DP  RH WIND       PRES   REMARKS
JACKSON        FLURRIES  37  36  93 S9        29.76S WCI  31
CODY           FAIR      54  30  40 NW12G25   29.63F
GREYBULL       LGT RAIN  45  39  79 S18G24    29.63S
WORLAND        CLOUDY    55  29  36 S5        29.62F
SHERIDAN       PTSUNNY   33  28  81 S7        29.71F WCI  27
BUFFALO        FAIR      40  30  67 N5        29.68
GILLETTE       FAIR      44  36  73 N10       29.70F
HULETT         FAIR      43  34  70 CALM      29.72F
NEWCASTLE      FAIR      48  32  53 N9G17     29.68F

$$
WYZ014>020-022>026-101>103-262300-
CENTRAL WYOMING

CITY           SKY/WX    TMP DP  RH WIND       PRES   REMARKS
BIG PINEY      PTSUNNY   46  24  42 NW17G23   29.74F
PINEDALE       FAIR      43  27  52 NW14G20   29.75S
DUBOIS         FAIR      45  19  36 W22G29    29.68S
LANDER         CLOUDY    53  24  32 N10       29.62F
RIVERTON       FAIR      53  25  33 S3        29.64F
CASPER         CLOUDY    51  29  42 SW8G18    29.65F
DOUGLAS        FAIR      57  28  33 NW13      29.66F

$$
WYZ021-027>030-104>119-262300-
SOUTHERN WYOMING

CITY           SKY/WX    TMP DP  RH WIND       PRES   REMARKS
EVANSTON       CLOUDY    43  29  57 SW16      29.80F
KEMMERER         N/A     45  27  49 SW20G28   29.78F
FORT BRIDGER   MOCLDY    48  28  46 W21G29    29.82F
ROCK SPRINGS   PTSUNNY   44  30  57 W22G30    29.76F
DIXON            N/A     47  30  50 SW12G20   29.79F
RAWLINS        PTSUNNY   41  32  70 SW8       29.72F
SARATOGA       MOCLDY    45  32  61 SW20G26   29.76F
LARAMIE        CLOUDY    41  28  60 W20       29.73F
CHEYENNE       CLOUDY    48  28  46 NW21G33   29.72R
TORRINGTON     FAIR      58  29  33 NW8       29.65F
PINE BLUFFS    CLOUDY    50  32  50 N17G24    29.70S

$$



USA.gov is the U.S. government's official web portal to all federal, state and local government web resources and services.